Probability
0 0 0 0 0 0 0 0 0 0 0 0 0 0 0 0 0 0 0 0 0 0 0 0 0 0 0 0 0 0 0 0 0 0 0 0 0 0 0 0 0 0 0
0 0 0 0 0 0 0 0 0 0 0 0 0 0 0 0 0 0 0 0 0 0 0 0 0 0 0 0 0 0 0 0 0 0 0 0 0 0 0 0 0 0 0
0 0 0 0 0 0 0 0 0 0 0 0 0 0 0 0 0 0 0 0 0 0 0 0 0 0 0 0 0 0 0 0 0 0 0 0 0 0 0 0 0 0 0
0 0 0 0 0 0 0 0 0 0 0 0 0 0 0 0 0 0 0 0 0 0 0 0 0 0 0 0 0 0 0 0 0 0 0 0 0 0 0 0 0 0 0
0 0 0 0 0 0 0 0 0 0 0 0 0 0 0 0 0 0 0 0 0 0 0 0 0 0 0 0 0 0 0 0 0 0 0 0 0 0 0 0 0 0 0
0 0 0 0 0 0 0 0 0 0 0 0 0 0 0 0 0 0 0 0 0 0 0 0 0 0 0 0 0 0 0 0 0 0 0 0 0 0 0 0 0 0 0
0 0 0 0 0 0 0 0 0 0 0 0 0 0 0 0 0 0 0 0 0 0 0 0 0 0 0 0 0 0 0 0 0 0 0 0 0 0 0 0 0 0 0
0 0 0 0 0 0 0 0 0 0 0 0 0 0 0 0 0 0 0 0 0 0 0 0 0 0 0 0 0 0 0 0 0 0 0 0 0 0 0 0 0 0 0
0 0 0 0 0 0 0 0 0 0 0 0 0 0 0 0 0 0 0 0 0 0 0 0 0 0 0 0 0 0 0 0 0 0 0 0 0 0 0 0 0 0 0
0 0 0 0 0 0 0 0 0 0 0 0 0 0 0 0 0 0 0 0 0 0 0 0 0 0 0 0 0 0 0 0 0 0 0 0 0 0 0 0 0 0 0
0 0 0 0 0 0 0 0 0 0 0 0 0 0 0 0 0 0 0 0 0 0 0 0 0 0 0 0 0 0 0 0 0 0 0 0 0 0 0 0 0 0 0
0 0 0 0 0 0 0 0 0 0 0 0 0 0 0 0 0 0 0 0 0 0 0 0 0 0 0 0 0 0 0 0 0 0 0 0 0 0 0 0 0 0 0
0 0 0 0 0 0 0 0 0 0 0 0 0 0 0 0 0 0 0 0 0 0 0 0 0 0 0 0 0 0 0 0 0 0 0 0 0 0 0 0 0 0 0
0 0 0 0 0 0 0 0 0 0 0 0 0 0 0 0 0 0 0 0 0 0 0 0 0 0 0 0 0 0 0 0 0 0 0 0 0 0 0 0 0 0 0
0 0 0 0 0 0 0 0 0 0 0 0 0 0 0 0 0 0 0 0 0 0 0 0 0 0 0 0 0 0 0 0 0 0 0 0 0 0 0 0 0 0 0
0 0 0 0 0 0 0 0 0 0 0 0 0 0 0 0 0 0 0 0 0 0 0 0 0 0 0 0 0 0 0 0 0 0 0 0 0 0 0 0 0 0 0
0 0 0 0 0 0 0 0 0 0 0 0 0 0 0 0 0 0 0 0 0 0 0 0 0 0 0 0 0 0 0 0 0 0 0 0 0 0 0 0 0 0 0
0 0 0 0 0 0 0 0 0 0 0 0 0 0 0 0 0 0 0 0 0 0 0 0 0 0 0 0 0 0 0 0 0 0 0 0 0 0 0 0 0 0 0
0 0 0 0 0 0 0 0 0 0 0 0 0 0 0 0 0 0 0 0 0 0 0 0 0 0 0 0 0 0 0 0 0 0 0 0 0 0 0 0 0 0 0
0 0 0 0 0 0 0 0 0 0 0 0 0 0 0 0 0 0 0 0 0 0 0 0 0 0 0 0 0 0 0 0 0 0 0 0 0 0 0 0 0 0 0
0 0 0 0 0 0 0 0 0 0 0 0 0 0 0 0 0 0 0 0 0 0 0 0 0 0 0 0 0 0 0 0 0 0 0 0 0 0 0 0 0 0 0
0 0 0 0 0 0 0 0 0 0 0 0 0 0 0 0 0 0 0 0 0 0 0 0 0 0 0 0 0 0 0 0 0 0 0 0 0 0 0 0 0 0 0
0 0 0 0 0 0 0 0 0 0 0 0 0 0 0 0 0 0 0 0 0 0 0 0 0 0 0 0 0 0 0 0 0 0 0 0 0 0 0 0 0 0 0
0 0 0 0 0 0 0 0 0 0 0 0 0 0 0 0 0 0 0 0 0 0 0 0 0 0 0 0 0 0 0 0 0 0 0 0 0 0 0 0 0 0 0
0 0 0 0 0 0 0 0 0 0 0 0 0 0 0 0 0 0 0 0 0 0 0 0 0 0 0 0 0 0 0 0 0 0 0 0 0 0 0 0 0 0 0
0 0 0 0 0 0 0 0 0 0 0 0 0 0 0 0 0 0 0 0 0 0 0 0 0 0 0 0 0 0 0 0 0 0 0 0 0 0 0 0 0 0 0
Height
5658 5660 5662 5664 5665 5666 5667 5669 5671 5672 5674 5676 5677 5678 5680 5681 5682 5683 5685 5685 5686 5687 5688 5689 5690 5690 5691 5692 5692 5693 5694 5694 5695 5696 5696 5696 5696 5696 5697 5697 5696 5696 5695
5656 5657 5658 5659 5660 5661 5662 5663 5663 5664 5665 5667 5668 5669 5670 5670 5671 5672 5673 5673 5674 5674 5675 5676 5676 5677 5678 5679 5679 5680 5681 5681 5682 5683 5683 5683 5684 5684 5685 5685 5685 5684 5684
5653 5653 5654 5654 5654 5655 5655 5655 5656 5656 5656 5657 5657 5658 5658 5658 5659 5659 5660 5660 5661 5661 5662 5662 5663 5664 5665 5665 5666 5667 5667 5668 5669 5670 5670 5671 5672 5672 5673 5673 5673 5672 5672
5649 5649 5649 5649 5648 5648 5648 5648 5648 5647 5647 5647 5647 5646 5646 5646 5646 5646 5646 5647 5647 5648 5648 5649 5649 5650 5651 5651 5652 5653 5654 5655 5656 5657 5658 5659 5659 5659 5660 5661 5661 5661 5660
5644 5643 5642 5642 5641 5640 5640 5639 5638 5637 5637 5636 5635 5634 5633 5633 5632 5632 5632 5632 5632 5633 5633 5634 5634 5635 5636 5636 5638 5638 5639 5640 5642 5643 5644 5645 5646 5647 5647 5648 5648 5648 5648
5637 5636 5635 5633 5632 5631 5629 5628 5627 5625 5624 5622 5621 5620 5619 5618 5617 5616 5616 5616 5616 5617 5617 5618 5618 5619 5620 5621 5622 5623 5625 5626 5627 5629 5630 5631 5632 5633 5634 5635 5636 5636 5636
5629 5627 5625 5623 5621 5619 5617 5615 5613 5611 5609 5607 5605 5604 5603 5601 5600 5599 5599 5599 5599 5599 5600 5601 5602 5603 5603 5605 5606 5608 5609 5611 5613 5614 5616 5617 5618 5620 5621 5622 5623 5623 5624
5619 5617 5614 5611 5608 5605 5603 5600 5597 5595 5592 5590 5588 5586 5584 5582 5581 5580 5579 5580 5580 5580 5581 5582 5583 5585 5586 5587 5589 5591 5593 5595 5597 5599 5602 5603 5604 5605 5607 5609 5610 5611 5611
5607 5604 5600 5596 5593 5589 5586 5582 5579 5576 5573 5570 5567 5565 5563 5561 5559 5559 5558 5559 5559 5560 5561 5562 5563 5565 5567 5569 5571 5573 5576 5578 5580 5583 5585 5587 5589 5591 5593 5595 5597 5598 5599
5594 5589 5584 5579 5574 5570 5566 5562 5558 5554 5550 5547 5544 5542 5540 5538 5537 5535 5535 5535 5537 5538 5539 5541 5542 5544 5547 5548 5551 5555 5558 5561 5564 5567 5569 5572 5575 5577 5579 5582 5583 5585 5586
5579 5573 5567 5560 5555 5549 5544 5539 5534 5530 5526 5523 5520 5517 5514 5512 5511 5509 5509 5509 5511 5513 5516 5518 5520 5522 5525 5528 5531 5535 5539 5543 5546 5550 5553 5557 5560 5563 5565 5568 5570 5573 5574
5562 5555 5548 5540 5533 5527 5520 5515 5509 5504 5500 5496 5493 5491 5487 5485 5483 5482 5482 5483 5484 5487 5491 5494 5496 5498 5502 5506 5510 5515 5520 5523 5528 5532 5537 5541 5545 5548 5551 5554 5557 5560 5562
5544 5536 5527 5519 5511 5503 5496 5490 5484 5478 5474 5470 5466 5463 5461 5458 5456 5455 5456 5457 5458 5460 5464 5468 5471 5475 5479 5484 5489 5494 5499 5504 5510 5516 5521 5525 5529 5533 5537 5541 5544 5547 5550
5526 5517 5508 5499 5491 5483 5474 5467 5460 5454 5448 5443 5439 5436 5434 5432 5430 5429 5430 5431 5433 5435 5439 5443 5447 5451 5456 5462 5468 5474 5480 5486 5493 5499 5504 5509 5514 5519 5523 5527 5531 5535 5538
5508 5498 5488 5480 5471 5463 5454 5445 5437 5430 5422 5417 5413 5409 5407 5407 5405 5404 5405 5407 5409 5412 5415 5419 5424 5429 5434 5441 5448 5454 5461 5468 5475 5482 5488 5494 5500 5505 5510 5514 5519 5522 5526
5490 5480 5470 5461 5452 5443 5434 5426 5416 5407 5400 5393 5387 5384 5383 5382 5382 5382 5383 5385 5387 5390 5393 5398 5404 5409 5414 5421 5428 5435 5443 5451 5459 5466 5473 5479 5485 5491 5497 5501 5506 5510 5514
5472 5462 5452 5442 5432 5423 5413 5405 5397 5389 5380 5373 5367 5363 5361 5361 5361 5361 5363 5365 5367 5370 5373 5378 5384 5390 5396 5402 5410 5417 5426 5435 5443 5451 5458 5465 5472 5478 5484 5489 5494 5498 5502
5455 5444 5433 5423 5412 5403 5393 5384 5376 5369 5364 5357 5350 5345 5343 5342 5343 5343 5345 5347 5350 5353 5357 5362 5367 5373 5379 5386 5394 5402 5410 5419 5428 5436 5444 5452 5459 5465 5471 5477 5482 5487 5491
5439 5427 5416 5405 5394 5384 5375 5366 5358 5351 5345 5340 5336 5331 5328 5327 5327 5328 5329 5332 5335 5339 5343 5348 5353 5359 5365 5372 5380 5388 5396 5406 5415 5423 5431 5439 5446 5453 5459 5465 5470 5475 5480
5423 5411 5399 5388 5378 5368 5358 5350 5342 5335 5330 5325 5322 5319 5316 5314 5314 5315 5316 5318 5322 5326 5330 5335 5340 5346 5353 5360 5368 5376 5384 5393 5402 5411 5419 5427 5435 5441 5448 5454 5460 5465 5470
5408 5396 5384 5373 5362 5353 5344 5335 5328 5322 5317 5313 5310 5307 5304 5303 5303 5304 5305 5307 5310 5314 5318 5324 5329 5335 5342 5349 5356 5365 5373 5382 5391 5400 5408 5416 5423 5430 5437 5443 5449 5454 5459
5394 5382 5370 5359 5349 5340 5331 5324 5317 5312 5307 5303 5300 5297 5295 5294 5294 5294 5296 5298 5301 5304 5309 5314 5320 5326 5333 5339 5347 5355 5364 5373 5381 5390 5398 5406 5413 5420 5427 5433 5439 5445 5449
5381 5370 5359 5348 5338 5329 5321 5314 5308 5303 5299 5295 5291 5289 5286 5285 5285 5286 5288 5291 5294 5298 5302 5306 5312 5318 5324 5331 5339 5347 5355 5364 5372 5380 5388 5396 5404 5411 5417 5424 5430 5435 5440
5370 5359 5348 5338 5328 5320 5313 5307 5301 5296 5292 5288 5284 5281 5279 5279 5279 5280 5282 5285 5288 5292 5296 5300 5305 5311 5318 5325 5332 5340 5348 5356 5364 5372 5380 5388 5395 5402 5408 5415 5421 5426 5431
5360 5349 5339 5330 5321 5314 5307 5301 5296 5291 5286 5282 5279 5276 5274 5274 5274 5275 5278 5280 5283 5287 5291 5295 5300 5306 5313 5319 5327 5334 5342 5349 5357 5365 5372 5380 5387 5394 5400 5407 5412 5418 5423
5351 5341 5331 5323 5315 5308 5302 5296 5291 5286 5282 5278 5275 5273 5271 5270 5271 5272 5274 5277 5280 5283 5287 5292 5297 5302 5308 5315 5322 5329 5336 5343 5351 5358 5366 5373 5380 5387 5393 5399 5404 5409 5414
Wind_Speed
11 12 14 16 17 20 22 25 29 31 33 36 38 40 42 43 44 45 45 46 47 48 48 47 48 49 49 50 50 50 49 48 48 47 46 46 46 45 44 44 43 43 43
10 12 14 16 18 20 22 24 27 30 33 36 39 41 42 44 46 46 47 47 47 48 48 49 49 49 49 49 50 49 49 48 48 47 46 45 44 44 44 43 43 43 43
9 11 13 15 17 20 22 24 27 29 31 33 37 39 41 43 45 46 47 48 49 49 49 50 50 50 50 50 50 50 49 49 49 48 46 45 45 44 44 43 44 44 44
11 13 15 16 18 21 23 25 28 29 31 33 35 38 41 43 45 47 48 49 50 51 51 51 51 52 52 51 51 51 51 51 50 49 48 47 46 46 46 45 45 45 45
16 18 20 22 24 26 28 30 32 33 35 37 38 40 42 44 45 47 48 49 50 51 52 52 52 53 54 54 54 53 53 52 52 51 49 48 48 47 46 46 46 45 44
23 24 26 28 30 32 34 36 38 39 41 42 43 45 46 47 47 48 50 51 52 53 53 53 53 54 54 54 54 54 53 53 52 51 50 50 49 49 48 46 46 46 45
28 30 32 33 35 37 39 41 42 44 46 47 49 50 51 52 52 52 53 54 55 55 56 55 55 55 54 54 54 54 54 55 54 53 52 50 50 49 48 47 47 46 45
33 35 38 40 42 44 45 47 49 50 52 53 54 55 55 56 57 57 57 57 58 58 59 58 58 58 58 57 57 56 56 55 54 54 53 52 50 49 48 48 47 46 45
39 41 44 46 48 50 52 54 55 57 58 60 60 60 60 60 61 62 62 62 61 61 61 61 62 61 60 61 60 58 57 55 55 54 53 52 50 49 49 48 47 45 44
45 47 50 52 55 57 59 61 62 64 65 65 65 66 65 65 65 66 65 65 65 64 64 63 63 63 63 62 61 60 59 57 56 55 53 52 51 50 49 47 46 45 44
50 53 56 58 60 62 64 65 67 67 68 68 68 68 69 69 69 69 69 68 67 67 66 64 64 64 64 63 62 61 60 59 58 56 54 53 51 50 49 47 46 44 42
55 57 59 61 64 66 67 68 69 69 70 70 70 70 71 71 70 69 69 69 68 67 66 65 64 65 65 64 63 62 61 60 59 57 55 53 52 51 49 47 45 43 41
58 60 61 63 65 66 68 69 70 71 71 71 71 71 70 70 69 69 68 67 66 65 65 65 65 65 65 65 64 63 62 61 59 57 55 54 52 51 49 46 44 43 40
60 62 63 63 64 65 66 68 68 69 70 71 71 70 69 67 66 65 63 63 63 62 62 62 63 64 65 65 64 63 63 61 59 57 55 53 52 50 48 45 43 42 40
62 63 63 63 64 64 65 66 67 67 69 68 67 67 65 62 61 61 60 59 59 59 59 60 60 61 62 63 63 63 62 61 59 56 54 51 50 48 46 44 42 41 39
63 63 63 63 64 64 64 64 65 65 64 64 62 61 59 57 55 55 55 56 56 57 58 58 58 58 59 60 61 61 61 59 57 55 52 50 49 47 45 43 42 40 39
63 63 63 64 64 63 63 62 60 59 59 58 56 54 52 51 50 49 50 51 52 54 55 54 55 55 55 56 57 57 57 57 55 54 52 50 47 46 45 43 41 40 39
64 64 64 63 63 62 61 59 58 56 54 52 50 48 46 45 44 44 44 45 46 48 48 48 49 50 51 52 52 54 54 53 53 52 51 49 47 45 44 42 41 39 37
64 64 63 62 61 60 58 56 54 52 49 46 43 41 41 39 39 39 40 40 41 42 42 42 42 43 45 46 47 49 50 50 49 49 49 47 46 45 43 42 40 38 36
64 63 63 61 59 57 56 53 50 46 43 39 37 36 36 35 34 34 36 37 37 38 38 38 38 39 41 42 44 45 46 46 47 47 46 46 45 44 43 41 39 37 36
62 62 61 58 56 54 51 48 45 41 37 35 33 32 31 30 30 30 30 31 32 33 34 35 36 37 38 39 41 43 44 44 44 44 44 44 43 43 41 40 38 37 36
60 59 57 54 52 50 46 43 39 36 33 31 29 29 28 27 26 26 26 26 27 28 30 32 33 35 36 37 39 41 41 41 42 42 42 42 42 41 40 39 38 36 35
58 56 54 52 49 45 42 38 34 31 29 28 27 26 24 24 23 23 23 24 25 25 26 28 30 33 35 35 37 38 39 39 40 40 39 39 40 39 38 37 36 35 34
55 54 51 48 44 40 36 33 30 28 27 26 25 23 21 20 19 18 19 20 22 23 24 25 26 30 32 33 35 36 37 37 38 38 38 38 37 37 36 36 35 34 33
53 51 48 45 40 36 32 30 28 26 24 23 21 19 16 15 14 15 16 18 19 20 21 22 24 27 29 31 32 34 35 35 36 36 37 37 36 35 35 34 33 33 32
51 48 44 41 37 33 30 28 26 24 21 19 17 15 13 11 12 13 14 16 17 17 18 20 22 25 27 28 30 32 33 34 34 35 35 34 34 34 33 33 32 31 31
Wind_Direction
226 230 235 240 242 242 243 245 247 248 249 248 248 249 249 250 253 254 256 257 258 258 259 260 260 260 262 263 263 263 263 264 263 264 264 265 266 267 268 269 270 271 273
239 242 246 250 249 249 250 250 250 251 253 254 253 254 254 255 255 257 257 257 257 257 259 259 260 261 261 261 261 261 261 261 261 261 262 264 264 265 266 267 269 270 272
259 262 264 264 260 258 256 256 256 257 258 258 257 257 257 257 258 258 258 258 258 258 258 260 260 260 260 260 260 261 260 261 262 262 262 263 263 263 263 266 267 270 272
277 274 273 273 270 268 265 264 262 262 262 262 262 261 261 261 260 260 260 259 260 259 259 260 260 260 260 259 259 260 260 261 262 262 262 262 262 261 263 265 268 270 273
288 283 280 277 275 274 273 271 269 269 268 267 266 265 265 264 264 263 262 261 261 261 260 260 259 260 259 259 259 260 260 260 260 261 261 261 260 261 262 265 268 270 272
290 288 284 282 280 278 277 276 274 273 272 270 269 268 266 265 264 263 262 261 260 260 259 259 258 258 258 258 258 257 258 258 258 259 260 260 260 261 263 265 267 269 271
294 293 290 288 285 282 281 280 278 276 274 274 273 271 269 267 266 265 264 262 261 260 260 259 258 257 256 256 255 255 256 256 257 257 258 259 260 261 263 264 266 268 269
296 294 292 290 289 287 285 284 281 279 277 276 275 274 272 270 269 268 266 264 263 261 260 258 257 257 256 255 255 255 256 256 257 257 258 259 260 261 262 263 265 267 268
299 297 295 293 291 289 287 286 284 282 281 279 277 275 273 271 269 268 266 265 263 261 260 258 257 257 256 255 255 255 255 255 255 256 257 258 258 259 261 262 264 265 266
299 298 296 294 292 290 289 288 286 284 282 281 279 277 275 272 270 268 267 265 263 261 260 258 257 256 255 255 255 254 254 254 254 254 254 255 256 257 259 260 262 263 265
301 299 297 295 293 292 290 289 287 285 284 282 280 278 276 273 271 269 268 266 264 262 261 259 256 255 254 254 253 253 252 251 251 251 252 253 254 255 256 258 260 262 263
304 302 299 297 295 294 292 290 288 286 284 283 281 279 276 274 273 270 268 266 264 262 259 257 255 254 252 251 251 250 250 249 249 249 250 251 252 253 254 256 258 260 260
306 304 302 299 297 296 294 292 290 288 286 284 282 280 277 275 273 271 268 266 263 260 257 255 253 251 250 248 248 247 247 246 246 247 248 248 249 250 251 253 254 256 256
307 305 303 301 300 298 296 295 292 290 288 285 283 280 278 275 272 269 267 264 261 258 255 253 251 249 248 247 245 245 245 245 244 245 246 246 247 248 249 250 251 253 254
308 306 304 302 301 299 298 297 295 292 290 287 284 281 278 275 271 268 264 261 258 256 254 250 249 247 245 244 243 242 243 243 243 243 244 244 245 245 246 247 249 250 251
310 308 306 304 302 301 300 298 296 294 292 289 287 284 280 276 271 266 262 259 255 253 252 249 248 246 244 242 241 240 240 241 241 241 241 241 242 242 243 244 246 247 248
311 309 307 306 304 303 301 300 298 296 294 291 289 286 281 276 271 266 262 258 254 252 251 249 246 245 243 240 239 238 238 238 237 237 237 238 239 240 241 242 243 245 246
312 311 309 308 307 305 303 302 300 298 295 292 289 286 283 277 272 266 261 257 254 252 250 248 245 243 240 238 237 236 235 235 234 234 235 235 236 238 239 240 241 242 243
313 313 311 310 309 307 306 304 303 300 297 293 288 285 283 279 273 267 260 256 253 251 249 246 243 241 238 235 234 233 232 231 231 232 232 233 234 235 237 238 238 239 241
316 315 313 312 311 309 308 306 304 302 299 295 290 286 283 279 273 267 260 257 253 249 245 243 241 237 234 232 231 229 228 227 227 228 229 230 231 233 234 235 235 237 239
318 317 316 315 314 312 311 308 306 303 300 296 293 288 284 279 273 265 259 255 251 245 242 240 237 232 229 228 227 225 224 224 225 226 226 228 229 230 231 232 233 235 237
320 320 319 318 316 315 314 312 309 305 302 299 295 291 285 280 273 265 257 252 247 243 241 238 234 228 224 223 223 222 221 222 222 223 223 225 227 228 229 231 232 234 235
323 323 323 321 319 318 316 314 311 308 305 302 299 294 286 279 271 262 254 248 243 239 238 234 230 225 221 220 219 219 217 218 218 219 221 223 224 227 228 229 230 232 234
324 325 325 325 323 321 319 317 315 312 309 305 303 298 289 278 268 258 249 244 238 234 233 230 226 221 218 217 216 216 215 215 216 218 220 221 223 224 225 226 228 230 232
326 326 326 327 326 325 323 321 319 317 314 311 308 303 293 278 264 254 245 238 232 229 228 224 220 216 213 213 212 213 212 212 214 216 217 219 221 222 222 223 226 228 231
327 327 326 326 326 326 326 325 323 320 318 316 313 309 298 281 264 250 237 229 225 222 219 216 214 211 209 209 209 209 209 211 212 213 216 218 219 220 220 222 226 228 230